Dewpoint
40 41 43 47 50 52 53 54 56 56 55 50 46 43 41 39 37 34 32 30 31 29 29 30 28 30 30 27 28 28 27 28 29 31 24 28 29 27 22 18 29 29 30
39 41 44 49 52 53 53 54 53 53 51 49 46 44 41 39 37 34 28 25 24 25 24 25 25 26 26 24 24 25 25 28 28 28 28 23 25 23 19 26 22 27 21
39 40 44 47 47 48 49 49 48 47 46 44 43 42 41 39 35 33 29 23 21 22 22 22 22 23 24 22 22 23 23 24 26 26 24 21 22 20 26 21 24 17 18
39 40 43 45 45 45 46 47 47 45 44 44 43 41 38 35 35 33 29 24 20 19 20 19 20 21 21 20 20 21 21 22 20 23 26 24 23 20 21 23 17 20 22
38 40 43 44 45 43 42 41 42 43 42 42 40 37 35 34 32 28 25 23 19 17 18 17 18 17 19 18 18 18 17 19 21 20 22 20 20 23 19 16 16 18 20
39 43 44 44 42 41 39 37 36 36 36 36 35 33 30 26 23 20 19 19 19 17 16 15 15 15 15 16 16 17 15 15 18 17 19 17 15 20 15 14 15 18 17
42 43 43 42 41 38 37 35 34 32 31 29 28 25 22 20 19 17 15 14 13 12 12 13 12 12 13 13 13 13 14 14 14 15 14 15 19 17 16 18 17 16 18
42 43 43 42 40 37 35 33 31 29 27 25 23 22 20 18 17 15 14 12 11 11 11 11 10 10 10 11 11 13 13 13 13 11 13 16 16 17 19 17 19 18 16
42 43 43 42 39 36 33 31 28 26 23 21 19 17 16 15 13 12 12 11 10 9 9 9 9 9 10 10 10 11 11 12 12 13 15 14 14 17 20 21 20 19 18
41 42 43 41 39 36 33 29 27 24 21 18 15 13 13 13 11 10 8 7 8 8 8 8 9 9 10 10 11 11 12 11 12 13 14 15 16 18 19 20 21 20 20
40 42 42 40 38 35 31 28 25 22 19 16 14 12 12 10 9 8 7 7 7 8 8 9 10 11 11 11 11 11 10 11 13 15 16 18 19 20 20 20 21 21 21
40 41 41 39 37 34 30 26 24 21 19 16 14 13 11 9 8 8 8 8 8 9 9 11 12 12 12 13 12 11 11 12 15 17 19 19 20 20 21 21 21 20 19
40 40 39 37 36 32 28 26 23 20 16 15 14 13 11 9 9 9 9 10 9 10 11 12 12 12 13 14 13 12 11 14 17 19 20 20 20 21 21 20 19 19 20
39 39 37 37 36 32 29 26 22 18 16 15 14 12 10 10 10 11 11 11 11 11 12 13 13 13 14 14 13 13 15 16 18 20 21 20 21 21 20 19 19 20 21
39 38 37 36 35 32 29 24 19 16 15 15 13 11 11 10 10 11 11 10 11 12 13 13 13 13 14 10 14 15 17 17 18 20 20 20 21 20 19 19 19 20 21
38 38 37 36 34 31 27 22 17 15 15 14 12 11 10 9 10 9 9 9 10 11 11 11 12 12 11 14 15 16 16 17 18 20 19 20 20 19 20 21 21 22 23
38 38 37 36 34 29 25 20 16 14 13 11 10 9 9 8 8 8 8 8 9 10 11 11 12 11 10 13 14 16 16 18 19 19 20 19 19 21 22 23 23 25 27
38 39 38 35 32 26 23 16 14 12 11 9 8 8 7 7 7 8 8 8 9 11 12 12 11 10 10 13 14 16 17 17 19 19 19 20 21 24 23 22 23 29 27
38 39 37 33 27 24 17 14 12 11 10 7 7 6 6 6 7 7 7 8 11 13 13 12 11 10 9 13 15 18 18 18 18 20 20 23 23 23 19 22 28 25 23
36 33 30 25 21 17 14 12 10 9 8 6 7 7 7 7 7 7 7 11 13 13 13 11 10 10 9 16 18 20 19 19 19 22 25 23 20 18 25 25 21 19 15
30 28 24 21 18 15 13 11 9 6 7 7 7 7 7 7 7 8 11 13 13 13 11 9 9 10 13 18 19 20 19 19 23 25 23 21 19 29 19 18 15 15 19
28 25 22 19 18 14 11 7 6 7 7 8 8 8 7 7 9 12 12 12 12 10 9 9 10 12 16 19 19 19 20 22 22 22 20 20 29 17 16 15 16 17 17
23 21 19 17 16 11 9 7 7 8 8 7 7 6 7 9 12 11 11 12 11 9 10 10 11 15 16 18 19 20 21 20 19 21 24 23 17 14 14 15 16 16 15
21 19 16 13 11 9 8 8 8 8 7 6 6 7 10 14 11 12 12 11 11 11 12 14 15 15 16 16 17 18 18 19 24 25 21 16 13 14 15 15 15 16 18
21 19 16 13 9 8 8 8 8 8 7 6 8 10 12 12 13 12 11 13 13 15 15 15 15 15 15 16 17 17 17 21 23 18 14 12 14 15 14 14 15 17 18
23 21 18 15 10 8 9 9 9 8 8 9 10 11 14 14 13 12 13 15 15 15 15 15 15 16 16 17 17 17 20 19 17 15 13 14 16 15 15 15 17 17 18
Wind_Speed
15 14 12 9 10 8 10 13 20 19 19 18 17 16 14 16 16 17 18 17 16 16 15 14 14 12 12 12 12 9 11 7 17 7 14 8 7 5 16 20 16 17 14
18 16 14 11 12 11 11 13 14 17 17 17 15 13 16 16 16 15 16 15 15 13 13 12 11 12 11 12 13 13 9 4 14 9 6 8 8 10 27 13 19 13 17
26 20 20 16 16 17 17 19 18 20 20 21 20 18 18 13 13 13 12 12 14 13 12 12 11 11 10 11 9 11 11 8 6 15 5 7 6 23 5 21 10 23 20
21 21 24 19 17 14 15 17 18 21 20 18 21 19 17 16 9 10 10 12 13 13 12 11 10 9 9 10 9 9 9 10 14 10 7 4 8 8 14 6 25 16 20
29 26 26 22 16 15 17 17 18 17 17 19 20 19 18 13 12 12 12 12 12 12 11 10 9 8 8 8 9 10 11 9 7 10 11 13 12 10 11 23 12 20 16
23 23 23 23 19 17 19 19 22 19 19 20 19 20 19 17 15 11 12 9 8 9 9 9 9 8 8 8 8 8 10 11 9 10 10 11 12 14 16 25 26 25 19
28 27 27 24 20 19 20 19 21 21 21 22 20 19 17 16 14 11 9 7 5 6 8 7 8 7 8 8 9 10 10 11 12 13 14 12 13 10 17 19 26 25 22
26 26 26 24 22 20 19 20 21 20 20 19 18 17 16 15 12 10 9 7 6 5 6 7 7 9 9 10 10 9 11 11 15 17 17 13 13 14 16 18 21 31 28
26 27 25 24 22 20 21 22 21 19 18 17 17 16 15 14 12 9 8 7 5 5 6 7 8 9 10 11 11 11 14 14 12 16 11 13 15 14 15 16 17 20 30
25 25 24 24 20 20 20 21 20 20 18 17 15 14 14 12 10 9 8 7 5 6 7 8 9 11 11 12 11 13 13 13 13 10 15 15 16 18 17 15 14 17 22
26 25 24 23 21 20 21 21 20 20 18 16 15 14 12 11 10 8 6 6 5 7 8 9 10 11 12 13 13 13 12 14 11 11 15 17 19 18 18 18 17 18 15
24 24 24 23 23 22 21 21 20 19 17 16 15 13 12 10 9 7 5 5 6 7 9 10 11 12 13 14 14 14 15 10 14 13 14 20 18 21 20 19 19 18 20
25 25 24 24 23 22 21 20 19 18 17 16 15 12 10 9 6 5 5 6 6 8 9 10 13 14 15 15 15 15 13 13 12 11 14 20 20 21 21 20 21 20 20
27 25 23 23 22 21 21 20 19 18 16 16 14 11 8 6 5 4 4 5 7 9 11 13 14 14 15 15 15 13 14 13 10 10 13 18 20 21 23 22 21 20 23
26 27 26 24 22 22 20 20 19 18 16 15 12 9 7 5 4 3 4 6 8 10 12 13 15 15 14 14 19 18 15 13 12 12 14 17 21 28 27 24 25 26 25
24 23 24 24 24 23 21 20 20 18 17 14 11 8 6 4 3 3 5 8 11 12 12 15 15 17 14 20 24 23 17 14 14 15 18 17 22 22 28 31 34 32 28
24 25 26 24 23 23 23 22 20 18 16 13 9 7 5 3 2 5 7 9 11 13 14 16 16 18 18 22 25 25 19 15 16 17 18 20 18 23 22 30 32 30 32
24 24 23 20 21 20 21 22 19 18 15 11 9 6 4 1 4 6 8 9 11 13 15 17 17 18 17 23 25 26 17 17 16 17 17 18 21 22 30 30 27 24 19
19 19 19 22 22 23 22 22 19 16 13 10 8 5 2 2 5 7 9 10 11 14 14 16 18 18 18 21 24 25 17 19 19 16 14 21 24 28 37 32 25 23 18
21 24 23 23 25 21 22 21 18 15 12 9 7 3 2 2 6 8 10 8 10 14 15 17 16 16 17 17 25 23 19 20 20 18 18 22 27 36 36 30 25 22 27
24 23 21 22 22 20 20 19 16 13 10 7 5 2 1 4 6 8 8 10 15 16 17 16 15 14 12 16 23 25 20 18 20 19 20 20 33 33 35 34 23 27 30
21 21 23 21 18 17 19 16 14 11 8 6 3 1 3 5 7 7 12 15 15 15 17 17 15 12 12 16 21 26 26 26 21 20 21 25 29 34 33 28 31 32 29
19 18 20 19 15 16 17 16 12 10 7 5 2 2 5 6 6 11 14 15 14 16 17 16 15 15 14 13 20 25 26 26 24 20 28 25 31 30 23 27 30 28 21
18 18 20 19 16 14 13 14 11 8 7 4 1 3 5 8 11 12 11 12 15 16 14 14 16 16 16 15 17 18 20 22 20 22 16 24 26 24 25 23 21 19 19
16 17 18 17 16 15 14 11 9 8 6 2 2 4 7 9 12 11 10 13 12 14 17 16 15 18 20 20 29 28 26 24 25 28 18 20 20 21 21 20 21 21 21
16 16 16 17 15 14 12 10 8 6 4 3 5 7 8 10 10 12 14 10 15 18 19 20 20 18 22 28 29 31 31 31 30 19 19 20 20 21 22 22 23 22 24
Wind_Direction
151 140 134 126 132 124 133 126 123 121 112 110 108 99 103 91 82 80 76 71 68 62 63 58 49 43 49 37 27 9 2 355 359 352 330 310 311 17 354 340 334 335 336
149 142 134 116 101 108 108 108 109 108 109 110 110 110 108 94 94 90 82 78 73 68 61 60 53 48 48 36 31 27 3 334 4 351 324 336 320 357 327 329 325 333 340
156 146 131 119 108 103 106 109 109 111 110 111 108 106 103 99 102 96 94 85 77 68 66 59 56 50 48 36 25 22 22 351 341 1 23 344 324 326 330 318 334 330 323
149 143 132 125 117 109 106 108 111 114 117 119 123 129 133 131 126 122 116 96 79 66 58 52 52 49 41 30 16 14 14 6 348 354 11 327 299 315 317 324 315 307 324
155 146 134 130 121 114 107 107 108 112 123 124 127 126 123 120 116 114 106 96 75 62 55 47 45 40 31 20 15 8 3 358 338 342 332 330 319 285 292 306 308 303 306
145 135 129 125 124 120 113 108 105 104 109 115 119 123 123 118 110 101 95 90 82 59 47 38 33 30 22 10 1 359 354 347 339 330 329 324 316 315 317 308 310 307 304
143 139 136 136 137 133 125 116 112 107 105 106 109 113 111 107 107 102 99 88 67 50 36 32 23 15 3 359 356 350 347 340 336 334 325 316 308 305 305 301 305 301 306
146 145 142 143 144 142 134 126 120 117 111 109 108 108 107 106 102 103 97 87 68 65 33 23 17 5 357 352 353 350 343 341 334 327 322 321 316 309 300 299 304 308 305
150 146 145 149 152 150 143 137 130 124 120 118 113 110 110 108 108 101 92 83 60 48 24 15 2 354 352 351 350 347 339 330 323 324 327 330 321 308 298 296 294 295 308
148 148 150 152 155 150 143 138 134 133 131 124 120 117 114 113 108 97 84 68 53 29 14 358 353 349 347 346 343 335 329 327 327 335 338 330 320 311 304 297 298 291 289
154 151 151 152 153 148 145 142 138 136 133 130 126 120 115 110 101 92 77 61 40 18 2 351 345 341 338 335 331 327 322 325 337 333 331 322 316 308 309 300 292 285 280
151 149 150 150 151 151 149 147 143 140 138 135 128 121 115 106 96 85 67 44 22 3 350 344 335 329 327 323 322 320 322 322 325 323 323 318 316 309 302 297 292 288 286
148 149 150 153 155 153 152 149 146 142 141 135 129 122 111 105 97 78 49 25 3 349 338 331 327 322 319 318 316 311 315 309 309 312 316 316 310 304 302 296 296 293 294
155 152 153 157 158 157 155 150 147 143 140 135 130 122 118 112 99 68 32 7 348 333 328 324 320 318 321 320 313 314 307 301 304 309 310 306 302 300 303 306 305 311 307
160 161 162 161 159 157 155 149 146 142 138 132 127 129 126 114 93 50 8 343 333 327 322 323 324 326 328 325 323 318 310 305 305 299 303 301 302 311 309 314 314 307 303
164 161 159 160 163 162 155 147 147 143 136 135 136 135 125 101 67 7 343 337 333 328 327 329 328 327 324 320 322 321 317 309 303 299 301 293 302 302 308 309 307 303 309
163 164 164 166 163 157 149 149 146 139 136 138 139 132 117 88 11 341 344 338 329 327 328 328 329 326 319 322 324 323 320 309 295 295 293 299 302 306 303 302 305 304 298
164 161 162 155 148 140 138 137 136 137 139 141 139 139 134 87 356 342 335 327 325 326 327 328 326 322 317 323 324 326 320 307 299 292 293 299 308 309 308 308 309 302 305
152 149 143 139 133 134 132 132 136 137 138 144 147 139 118 20 337 327 320 322 319 322 325 323 319 318 317 327 333 331 333 322 316 311 313 315 313 311 313 318 315 320 313
114 120 117 118 122 128 132 133 139 140 143 142 142 131 79 337 315 312 313 308 314 320 321 317 316 318 324 336 333 334 324 318 318 322 313 312 317 314 317 324 325 322 316
105 105 108 118 127 129 131 134 136 139 141 136 127 106 9 316 306 309 306 318 329 323 318 313 313 315 317 326 330 330 328 320 320 315 318 313 314 320 327 328 331 311 319
107 110 115 121 127 128 127 131 135 142 135 130 118 30 324 312 314 318 333 335 325 318 317 317 314 303 297 308 321 326 325 322 321 322 317 312 324 329 329 329 319 326 328
115 112 117 116 117 127 133 137 145 139 134 118 84 341 326 326 347 346 335 324 324 327 326 319 313 317 317 302 307 317 317 329 330 325 317 332 329 330 329 323 327 325 316
124 123 124 121 121 126 130 132 136 130 118 110 33 338 349 353 352 342 329 325 331 330 321 323 325 320 322 322 316 322 331 332 332 320 332 331 330 327 323 321 320 318 316
133 133 135 135 130 125 125 127 125 123 121 116 18 8 2 354 334 329 328 331 326 328 330 325 325 326 328 325 330 334 333 333 331 337 336 330 327 324 324 323 321 321 320
140 139 139 137 138 133 128 127 126 128 130 71 18 359 340 330 331 333 331 334 332 329 327 328 329 328 324 327 332 330 334 336 335 338 328 324 323 322 322 322 321 321 322